Regional Weather Roundup
Issued by NWS Sterling, VA

Home | Current Version | Previous Version | Graphics & Text | Print | Product List | Glossary On
Versions: 1 2 3 4 5 6 7 8 9 10 11 12 13 14 15 16 17 18 19 20 21 22 23 24 25 26 27 28 29 30 31 32 33 34 35 36 37 38 39 40 41 42 43 44 45 46 47 48 49 50
000
ASUS41 KLWX 300610
RWRLWX

REGIONAL WEATHER ROUNDUP
NATIONAL WEATHER SERVICE BALTIMORE MD/WASHINGTON DC
200 AM EDT SAT MAY 30 2015

Note: "FAIR" indicates few or no clouds below 12,000 feet
with no significant weather and/or obstructions to visibility.
 TC=TEMPERATURE CELSIUS

 * =Non NWS site. Station does not report precipitation (e.g. rain,
    snow, etc.), thunder, or fog.

DCZ001-MDZ009-015-VAZ040>042-051-053>054-300700-
WASHINGTON METRO

CITY           SKY/WX    TMP DP  RH WIND       PRES   REMARKS
WASHINGTON NAT CLOUDY    74  66  76 S9        30.19S
DULLES         MOCLDY    68  66  94 S5        30.18S
ANDREWS AFB    MOCLDY    70  67  91 S8        30.18F
FT BELVOIR     MOCLDY    71  66  85 SE2       30.19R
QUANTICO       CLOUDY    72  66  81 S10       30.19S
COLLEGE PARK*  MOCLDY    72  66  83 S5        30.19R
LEESBURG*      CLEAR     70  70 100 CALM      30.20R
MANASSAS*      CLOUDY    70  68  94 S3        30.19R
GAITHERSBURG*  CLEAR     70  63  78 SE7       30.23R

$$

MDZ006>007-011-014-300700-
BALTIMORE METRO

CITY           SKY/WX    TMP DP  RH WIND       PRES   REMARKS
BWI AIRPORT    MOCLDY    71  66  84 VRB3      30.18F
MD SCIENCE CTR   N/A     74  66  76 MISG      30.19S
MARTIN STATE   MOCLDY    72  70  94 SE6       30.20S
ANNAPOLIS      PTCLDY    71  66  84 S12       30.18S
FORT MEADE*    MOCLDY    70  63  78 S3        30.21S

$$

MDZ012-015-019>023-300700-
MARYLAND EASTERN SHORE

CITY           SKY/WX    TMP DP  RH WIND       PRES   REMARKS
OCEAN CITY     FOG       66  65  96 S3        30.21F VSB 3/4
SALISBURY      CLOUDY    64  63  96 CALM      30.21F FOG
BAY BRIDGE AP*   N/A    N/A N/A N/A S10       30.19F
CAMBRIDGE*     CLEAR     66  63  88 CALM      30.20S
EASTON*        CLEAR     69  69 100 S3        30.24S

$$

MDZ017>025-300700-
SOUTHERN MARYLAND

CITY           SKY/WX    TMP DP  RH WIND       PRES   REMARKS
PATUXENT RIVER PTCLDY    70  66  87 S5        30.19F
ST INIGOES       N/A     72  67  84 S6        30.19S
LEONARDTOWN*   CLEAR     68  64  88 CALM      30.21S

$$

MDZ003>005-300700-
NORTH CENTRAL MARYLAND

CITY           SKY/WX    TMP DP  RH WIND       PRES   REMARKS
FREDERICK*     CLOUDY    70  68  94 S3        30.20S
HAGERSTOWN APT CLEAR     73  65  75 S12       30.17S
WESTMINSTER*   MOCLDY    70  64  83 S3        30.20R

$$

MDZ501>502-300700-
WESTERN MARYLAND

CITY           SKY/WX    TMP DP  RH WIND       PRES   REMARKS
OAKLAND*       CLEAR     61 N/A N/A S7        30.24S
CUMBERLAND*      N/A     66  66 100 CALM      30.20S

$$

VAZ025>031-300700-
SHENANDOAH VALLEY

CITY           SKY/WX    TMP DP  RH WIND       PRES   REMARKS
WINCHESTER*    CLEAR     70  68  94 CALM      30.18R
FRONT ROYAL*   FAIR      64  63  94 W3        30.17R
LURAY*           N/A     66  66 100 CALM      30.18S FOG
NEW MARKET*    FAIR      64  64  99 CALM      30.18S
STAUNTON*      MOCLDY    68  66  92 CALM      30.22S
WAYNESBORO*    FAIR      66  65  98 CALM      30.21F

$$

WVZ021-048>050-054>055-300700-
EASTERN WEST VIRGINIA PANHANDLE

CITY           SKY/WX    TMP DP  RH WIND       PRES   REMARKS
MARTINSBURG    CLEAR     67  65  93 CALM      30.18S FOG
PETERSBURG*    MOCLDY    63  61  91 CALM      30.19S FOG

$$

VAZ036>039-050-300700-
CENTRAL FOOTHILLS

CITY           SKY/WX    TMP DP  RH WIND       PRES   REMARKS
CHARLOTTESVILL CLOUDY    68  66  93 N3        30.19S
CULPEPER*      CLOUDY    64  64 100 CALM      30.19S FOG
ORANGE*        PTCLDY    66  64  94 CALM      30.21S FOG
GORDONSVILLE*  MOCLDY    66  65  98 CALM      30.18S
WARRENTON*     CLOUDY    67  66  99 CALM      30.19R

$$

VAZ055>057-300700-
NORTH AND CENTRAL PIEDMONT

CITY           SKY/WX    TMP DP  RH WIND       PRES   REMARKS
FREDERICKSBRG* MOCLDY    69  69 100 CALM      30.18S
STAFFORD*      MOCLDY    63  62  97 CALM      30.23S FOG

$$

NCZ024-NYZ072-PAZ021-071-VAZ022-071-300700-
OTHER REGIONAL OBSERVATIONS

CITY           SKY/WX    TMP DP  RH WIND       PRES   REMARKS
NEW YORK CITY  PTCLDY    68  60  75 CALM      30.23F
PHILADELPHIA   MOCLDY    71  64  78 SW3       30.20F
PITTSBURGH     MOCLDY    71  65  81 S5        30.11F
ROANOKE        PTCLDY    67  66  97 CALM      30.21F
RICHMOND       MOCLDY    69  65  86 SE5       30.19S
RALEIGH        PTCLDY    71  65  81 S3        30.20S

$$

ANZ530>537-300700-
MARINE OBSERVATIONS

STATION/POSITION TIME  TEMP    WIND        PRES
                       AIR SEA DIR/SP/G
                 (UTC) (F)     (DEG/KT/KT) (MB)
THOMAS PT LIGHT  0600   72 72  170/ 16/ 18 1022.5F
BALT KEY BRIDGE  0500   73     150/ 12/ 13 1021.8F
COVE POINT       0500   71     180/ 14/ 16 1023.2F
LEWISETTA        0500   71 77              1022.2F
SOLOMONS ISLAND  0500      74                N/A
PINEY POINT      0500          170/ 10/ 12   N/A

$$



USA.gov is the U.S. government's official web portal to all federal, state and local government web resources and services.